TimeMDT,TemperatureF,Dew PointF,Humidity,Sea Level PressureIn,VisibilityMPH,Wind Direction,Wind SpeedMPH,Gust SpeedMPH,PrecipitationIn,Events,Conditions,WindDirDegrees,DateUTC
12:53 AM,37.9,34.0,86,30.05,10.0,WNW,4.6,-,N/A,,Overcast,300,2012-10-12 06:53:00
1:53 AM,37.0,33.1,86,30.03,10.0,WSW,5.8,-,N/A,,Overcast,240,2012-10-12 07:53:00
2:53 AM,36.0,33.1,89,30.01,10.0,WNW,8.1,-,N/A,,Overcast,290,2012-10-12 08:53:00
3:26 AM,35.6,32.0,87,29.95,1.8,WNW,8.1,-,N/A,,Overcast,290,2012-10-12 09:26:00
3:35 AM,35.6,32.0,87,29.95,0.8,WNW,9.2,-,N/A,,Mist,290,2012-10-12 09:35:00
3:53 AM,34.0,32.0,92,29.99,0.5,WNW,8.1,-,N/A,Fog,Fog,300,2012-10-12 09:53:00
4:53 AM,34.0,32.0,92,29.97,0.5,NW,12.7,-,N/A,Fog,Fog,310,2012-10-12 10:53:00
5:53 AM,32.0,30.0,92,29.96,0.2,NW,19.6,-,N/A,Fog,Fog,320,2012-10-12 11:53:00
6:07 AM,30.2,28.4,93,29.90,3.0,NW,21.9,-,N/A,,Mostly Cloudy,320,2012-10-12 12:07:00
6:21 AM,30.2,28.4,93,29.90,10.0,NW,18.4,-,N/A,,Scattered Clouds,320,2012-10-12 12:21:00
6:53 AM,30.9,28.0,89,29.96,10.0,NW,18.4,-,N/A,,Clear,320,2012-10-12 12:53:00
7:53 AM,30.9,27.0,85,29.96,10.0,NW,20.7,-,N/A,,Clear,320,2012-10-12 13:53:00
8:53 AM,36.0,30.0,79,29.93,10.0,NW,19.6,-,N/A,,Clear,320,2012-10-12 14:53:00
11:53 AM,64.9,30.9,28,29.79,10.0,NW,12.7,24.2,N/A,,Clear,310,2012-10-12 17:53:00
12:53 PM,71.1,32.0,24,29.75,10.0,NNW,10.4,-,N/A,,Clear,340,2012-10-12 18:53:00
1:53 PM,78.1,24.1,14,29.70,10.0,West,24.2,32.2,N/A,,Clear,260,2012-10-12 19:53:00
2:53 PM,77.0,24.1,14,29.69,10.0,West,12.7,24.2,N/A,,Clear,260,2012-10-12 20:53:00
3:53 PM,78.1,25.0,14,29.67,10.0,WNW,19.6,26.5,N/A,,Clear,290,2012-10-12 21:53:00
4:53 PM,75.9,25.0,15,29.66,10.0,West,25.3,33.4,N/A,,Clear,280,2012-10-12 22:53:00
5:53 PM,73.0,24.1,16,29.68,10.0,WNW,17.3,-,N/A,,Clear,290,2012-10-12 23:53:00
6:53 PM,61.0,26.1,26,29.74,10.0,SW,5.8,-,N/A,,Clear,220,2012-10-13 00:53:00
8:53 PM,57.0,21.9,26,29.79,10.0,West,8.1,-,N/A,,Clear,280,2012-10-13 02:53:00
9:53 PM,57.9,21.0,24,29.79,10.0,West,10.4,-,N/A,,Clear,260,2012-10-13 03:53:00
10:53 PM,54.0,25.0,33,29.78,10.0,West,9.2,-,N/A,,Clear,270,2012-10-13 04:53:00
11:53 PM,50.0,25.0,38,29.76,10.0,WNW,10.4,-,N/A,,Clear,300,2012-10-13 05:53:00